PNR2654 LEZL-LEMD

Flight info

Callsign PNR2654
Flight time 0h 43m
Altitude 26000
Route HIJ Z230 SOTUK
Aircraft B463/M-SDFGIRWY/LB1

Departure

Time 2026-05-04 19:47
Airport Seville Airport (LEZL)

Arrival

Time 2026-05-04 20:31
Airport Adolfo Suárez Madrid–Barajas Airport (LEMD)
Time Latitude Longitude Altitude Speed Heading
2026-05-04 19:28 37.42106 -5.90239 89 ft 0 kts 32°
2026-05-04 19:38 37.42107 -5.90239 89 ft 0 kts 32°
2026-05-04 19:38 37.42104 -5.90241 89 ft 2 kts 32°
2026-05-04 19:38 37.42092 -5.90251 89 ft 2 kts 32°
2026-05-04 19:38 37.42079 -5.90261 88 ft 2 kts 32°
2026-05-04 19:39 37.42066 -5.90271 88 ft 2 kts 32°
2026-05-04 19:39 37.42054 -5.90281 88 ft 2 kts 32°
2026-05-04 19:39 37.42043 -5.90288 87 ft 0 kts 31°
2026-05-04 19:39 37.42042 -5.90290 87 ft 0 kts 31°
2026-05-04 19:40 37.42042 -5.90289 87 ft 0 kts 31°
2026-05-04 19:41 37.42043 -5.90288 87 ft 2 kts 40°
2026-05-04 19:41 37.42052 -5.90236 88 ft 7 kts 91°
2026-05-04 19:41 37.42051 -5.90179 89 ft 5 kts 90°
2026-05-04 19:41 37.42051 -5.90132 90 ft 5 kts 90°
2026-05-04 19:42 37.42051 -5.90055 91 ft 13 kts 91°
2026-05-04 19:42 37.42044 -5.89917 92 ft 16 kts 128°
2026-05-04 19:42 37.41980 -5.89808 91 ft 16 kts 89°
2026-05-04 19:42 37.41981 -5.89668 92 ft 16 kts 89°
2026-05-04 19:43 37.41982 -5.89522 90 ft 17 kts 90°
2026-05-04 19:43 37.41983 -5.89368 90 ft 17 kts 92°
2026-05-04 19:43 37.41980 -5.89227 93 ft 15 kts 92°
2026-05-04 19:43 37.41981 -5.89099 95 ft 14 kts 89°
2026-05-04 19:44 37.41982 -5.88971 94 ft 15 kts 92°
2026-05-04 19:44 37.41981 -5.88828 93 ft 19 kts 86°
2026-05-04 19:44 37.41985 -5.88645 93 ft 23 kts 90°
2026-05-04 19:44 37.41985 -5.88410 98 ft 27 kts 90°
2026-05-04 19:45 37.41986 -5.88175 102 ft 26 kts 89°
2026-05-04 19:45 37.41985 -5.87943 103 ft 26 kts 90°
2026-05-04 19:45 37.41990 -5.87718 106 ft 25 kts 89°
2026-05-04 19:45 37.41972 -5.87507 109 ft 24 kts 112°
2026-05-04 19:46 37.41844 -5.87447 110 ft 22 kts 213°
2026-05-04 19:46 37.41799 -5.87533 108 ft 0 kts 271°
2026-05-04 19:46 37.41799 -5.87571 107 ft 22 kts 270°
2026-05-04 19:47 37.41798 -5.88143 99 ft 102 kts 269°
2026-05-04 19:47 37.41802 -5.89290 168 ft 150 kts 266°
2026-05-04 19:47 37.41787 -5.90656 619 ft 161 kts 269°
2026-05-04 19:47 37.41801 -5.92105 1131 ft 176 kts 271°
2026-05-04 19:48 37.41840 -5.93658 1778 ft 179 kts 265°
2026-05-04 19:48 37.41667 -5.95160 2491 ft 174 kts 281°
2026-05-04 19:48 37.42233 -5.96476 2890 ft 182 kts 321°
2026-05-04 19:48 37.43329 -5.97414 3184 ft 201 kts 324°
2026-05-04 19:49 37.44546 -5.98439 3473 ft 220 kts 327°
2026-05-04 19:49 37.45889 -5.99503 3733 ft 239 kts 328°
2026-05-04 19:49 37.47354 -6.00644 4214 ft 253 kts 325°
2026-05-04 19:49 37.48740 -6.02031 4885 ft 258 kts 321°
2026-05-04 19:50 37.50131 -6.03445 5561 ft 263 kts 320°
2026-05-04 19:50 37.51550 -6.04895 6244 ft 267 kts 320°
2026-05-04 19:50 37.52994 -6.06382 6948 ft 270 kts 320°
2026-05-04 19:50 37.54441 -6.07877 7675 ft 271 kts 319°
2026-05-04 19:51 37.55906 -6.09398 8356 ft 273 kts 318°
2026-05-04 19:51 37.57467 -6.10742 8979 ft 279 kts 335°
2026-05-04 19:51 37.59392 -6.11160 9545 ft 290 kts
2026-05-04 19:51 37.61363 -6.10447 10166 ft 303 kts 27°
2026-05-04 19:52 37.63024 -6.08787 10673 ft 315 kts 39°
2026-05-04 19:52 37.64713 -6.06929 10985 ft 330 kts 38°
2026-05-04 19:52 37.66463 -6.05015 11412 ft 340 kts 38°
2026-05-04 19:52 37.68259 -6.03044 11940 ft 344 kts 38°
2026-05-04 19:53 37.70071 -6.01050 12489 ft 348 kts 38°
2026-05-04 19:53 37.71909 -5.99025 13010 ft 352 kts 38°
2026-05-04 19:53 37.73752 -5.96990 13535 ft 354 kts 38°
2026-05-04 19:53 37.75588 -5.94960 14005 ft 359 kts 38°
2026-05-04 19:54 37.77473 -5.92871 14480 ft 362 kts 38°
2026-05-04 19:54 37.79388 -5.90747 14975 ft 365 kts 38°
2026-05-04 19:54 37.81287 -5.88637 15449 ft 368 kts 38°
2026-05-04 19:54 37.83205 -5.86502 15891 ft 371 kts 38°
2026-05-04 19:55 37.85153 -5.84333 16315 ft 374 kts 38°
2026-05-04 19:55 37.87114 -5.82146 16718 ft 378 kts 38°
2026-05-04 19:55 37.89089 -5.79941 17152 ft 380 kts 38°
2026-05-04 19:55 37.91053 -5.77745 17546 ft 383 kts 38°
2026-05-04 19:56 37.93069 -5.75490 17941 ft 386 kts 37°
2026-05-04 19:56 37.95069 -5.73250 18376 ft 388 kts 37°
2026-05-04 19:56 37.97105 -5.70968 18771 ft 391 kts 37°
2026-05-04 19:56 37.99131 -5.68693 19172 ft 393 kts 37°
2026-05-04 19:57 38.01181 -5.66391 19559 ft 396 kts 37°
2026-05-04 19:57 38.03247 -5.64068 19924 ft 398 kts 37°
2026-05-04 19:57 38.05321 -5.61734 20292 ft 401 kts 37°
2026-05-04 19:57 38.07408 -5.59384 20626 ft 404 kts 37°
2026-05-04 19:58 38.09514 -5.57009 20981 ft 406 kts 37°
2026-05-04 19:58 38.11608 -5.54645 21330 ft 407 kts 37°
2026-05-04 19:58 38.13737 -5.52241 21650 ft 409 kts 37°
2026-05-04 19:58 38.15878 -5.49821 21979 ft 411 kts 37°
2026-05-04 19:59 38.18009 -5.47410 22269 ft 414 kts 37°
2026-05-04 19:59 38.20151 -5.44985 22569 ft 416 kts 37°
2026-05-04 19:59 38.22315 -5.42532 22879 ft 418 kts 37°
2026-05-04 19:59 38.24478 -5.40077 23178 ft 420 kts 36°
2026-05-04 20:00 38.26666 -5.37593 23449 ft 422 kts 36°
2026-05-04 20:00 38.28847 -5.35113 23758 ft 423 kts 36°
2026-05-04 20:00 38.31789 -5.31765 24074 ft 426 kts 37°
2026-05-04 20:00 38.33237 -5.30116 24225 ft 427 kts 37°
2026-05-04 20:01 38.35475 -5.27564 24478 ft 429 kts 37°
2026-05-04 20:01 38.37672 -5.25057 24778 ft 429 kts 37°
2026-05-04 20:01 38.39904 -5.22506 25109 ft 428 kts 37°
2026-05-04 20:01 38.42094 -5.20000 25447 ft 427 kts 37°
2026-05-04 20:02 38.44297 -5.17480 25739 ft 427 kts 37°
2026-05-04 20:02 38.46503 -5.14952 25966 ft 425 kts 37°
2026-05-04 20:02 38.48735 -5.12512 26013 ft 421 kts 32°
2026-05-04 20:02 38.51133 -5.10418 26009 ft 416 kts 24°
2026-05-04 20:03 38.53686 -5.08721 26011 ft 410 kts 17°
2026-05-04 20:03 38.56285 -5.07245 26006 ft 411 kts 17°
2026-05-04 20:03 38.58912 -5.05841 26004 ft 413 kts 15°
2026-05-04 20:03 38.61573 -5.04485 26010 ft 416 kts 14°
2026-05-04 20:04 38.64301 -5.03098 26006 ft 420 kts 14°
2026-05-04 20:04 38.67020 -5.01712 26004 ft 422 kts 14°
2026-05-04 20:04 38.69747 -5.00318 26005 ft 424 kts 15°
2026-05-04 20:04 38.72451 -4.98932 26004 ft 423 kts 14°
2026-05-04 20:05 38.75176 -4.97532 26003 ft 421 kts 14°
2026-05-04 20:05 38.77897 -4.96132 26004 ft 420 kts 14°
2026-05-04 20:05 38.80590 -4.94746 26005 ft 419 kts 15°
2026-05-04 20:05 38.83314 -4.93342 26006 ft 418 kts 14°
2026-05-04 20:06 38.86007 -4.91953 26005 ft 417 kts 15°
2026-05-04 20:06 38.88690 -4.90567 26005 ft 417 kts 15°
2026-05-04 20:06 38.91348 -4.89193 26005 ft 416 kts 15°
2026-05-04 20:06 38.94044 -4.87797 26005 ft 416 kts 15°
2026-05-04 20:07 38.96707 -4.86416 26004 ft 415 kts 15°
2026-05-04 20:07 38.99406 -4.85010 26005 ft 415 kts 15°
2026-05-04 20:07 39.02072 -4.83626 26004 ft 414 kts 15°
2026-05-04 20:07 39.04720 -4.82259 26006 ft 414 kts 15°
2026-05-04 20:08 39.07394 -4.80879 26001 ft 414 kts 15°
2026-05-04 20:08 39.10080 -4.79489 26005 ft 414 kts 15°
2026-05-04 20:08 39.12682 -4.78138 25998 ft 413 kts 15°
2026-05-04 20:08 39.15312 -4.76749 26000 ft 414 kts 17°
2026-05-04 20:09 39.17861 -4.75078 26000 ft 419 kts 24°
2026-05-04 20:09 39.20276 -4.73019 26003 ft 423 kts 31°
2026-05-04 20:09 39.22545 -4.70556 26002 ft 428 kts 38°
2026-05-04 20:09 39.24680 -4.67852 25998 ft 429 kts 40°
2026-05-04 20:10 39.26774 -4.65142 25638 ft 427 kts 40°
2026-05-04 20:10 39.28840 -4.62461 25228 ft 418 kts 40°
2026-05-04 20:10 39.30862 -4.59837 24829 ft 410 kts 40°
2026-05-04 20:10 39.32865 -4.57236 24426 ft 402 kts 40°
2026-05-04 20:11 39.34804 -4.54717 24057 ft 395 kts 40°
2026-05-04 20:11 39.36708 -4.52241 23692 ft 389 kts 40°
2026-05-04 20:11 39.38592 -4.49789 23316 ft 382 kts 41°
2026-05-04 20:11 39.40441 -4.47381 22955 ft 376 kts 41°
2026-05-04 20:12 39.42262 -4.45006 22613 ft 370 kts 41°
2026-05-04 20:12 39.44062 -4.42658 22287 ft 367 kts 41°
2026-05-04 20:12 39.45863 -4.40306 21972 ft 364 kts 41°
2026-05-04 20:12 39.47630 -4.37996 21660 ft 360 kts 41°
2026-05-04 20:13 39.49358 -4.35731 21363 ft 357 kts 41°
2026-05-04 20:13 39.51102 -4.33439 21083 ft 353 kts 42°
2026-05-04 20:13 39.52830 -4.31168 20628 ft 356 kts 42°
2026-05-04 20:13 39.54576 -4.28893 20131 ft 359 kts 42°
2026-05-04 20:14 39.56323 -4.26614 19643 ft 361 kts 42°
2026-05-04 20:14 39.58100 -4.24289 19156 ft 364 kts 42°
2026-05-04 20:14 39.59903 -4.21935 18680 ft 385 kts 43°
2026-05-04 20:14 39.61836 -4.19407 18174 ft 406 kts 43°
2026-05-04 20:15 39.63879 -4.16725 17661 ft 424 kts 43°
2026-05-04 20:15 39.65965 -4.13975 17143 ft 436 kts 44°
2026-05-04 20:15 39.68066 -4.11184 16624 ft 435 kts 44°
2026-05-04 20:15 39.70190 -4.08360 16116 ft 433 kts 44°
2026-05-04 20:16 39.72271 -4.05625 15631 ft 431 kts 44°
2026-05-04 20:16 39.74370 -4.02865 15168 ft 427 kts 44°
2026-05-04 20:16 39.76409 -4.00173 14732 ft 409 kts 44°
2026-05-04 20:16 39.78368 -3.97579 14346 ft 393 kts 44°
2026-05-04 20:17 39.80240 -3.95091 14063 ft 377 kts 44°
2026-05-04 20:17 39.82039 -3.92698 13755 ft 365 kts 44°
2026-05-04 20:17 39.83774 -3.90403 13428 ft 355 kts 44°
2026-05-04 20:17 39.85483 -3.88141 13112 ft 347 kts 44°
2026-05-04 20:18 39.87167 -3.85912 12802 ft 339 kts 44°
2026-05-04 20:18 39.88799 -3.83743 12501 ft 333 kts 44°
2026-05-04 20:18 39.90396 -3.81617 12200 ft 327 kts 44°
2026-05-04 20:18 39.91956 -3.79531 11909 ft 321 kts 44°
2026-05-04 20:19 39.93502 -3.77472 11620 ft 316 kts 44°
2026-05-04 20:19 39.95027 -3.75447 11339 ft 312 kts 44°
2026-05-04 20:19 39.96539 -3.73436 11090 ft 306 kts 44°
2026-05-04 20:19 39.98019 -3.71465 10946 ft 306 kts 44°
2026-05-04 20:20 39.99512 -3.69473 10800 ft 309 kts 44°
2026-05-04 20:20 40.01012 -3.67468 10656 ft 311 kts 44°
2026-05-04 20:20 40.02524 -3.65441 10507 ft 306 kts 44°
2026-05-04 20:20 40.03927 -3.63551 10366 ft 297 kts 45°
2026-05-04 20:21 40.05352 -3.61639 10215 ft 288 kts 44°
2026-05-04 20:21 40.06722 -3.59811 9982 ft 284 kts 44°
2026-05-04 20:21 40.09487 -3.56112 9383 ft 282 kts 44°
2026-05-04 20:22 40.10834 -3.54306 9087 ft 281 kts 44°
2026-05-04 20:22 40.12197 -3.52476 8785 ft 281 kts 44°
2026-05-04 20:22 40.13546 -3.50631 8493 ft 282 kts 49°
2026-05-04 20:22 40.14425 -3.48367 8220 ft 282 kts 75°
2026-05-04 20:23 40.14830 -3.45867 7931 ft 282 kts 79°
2026-05-04 20:23 40.15196 -3.43362 7641 ft 282 kts 79°
2026-05-04 20:23 40.15568 -3.40850 7375 ft 281 kts 78°
2026-05-04 20:23 40.15931 -3.38378 7119 ft 280 kts 78°
2026-05-04 20:24 40.16291 -3.35871 6878 ft 279 kts 78°
2026-05-04 20:24 40.16645 -3.33387 6657 ft 277 kts 78°
2026-05-04 20:24 40.17310 -3.31114 6475 ft 270 kts 52°
2026-05-04 20:24 40.18731 -3.29636 6329 ft 258 kts 17°
2026-05-04 20:25 40.20456 -3.29451 6204 ft 244 kts 342°
2026-05-04 20:25 40.21855 -3.30540 6079 ft 233 kts 312°
2026-05-04 20:25 40.23074 -3.31928 5923 ft 234 kts 321°
2026-05-04 20:25 40.24386 -3.33230 5769 ft 237 kts 320°
2026-05-04 20:26 40.25701 -3.34551 5602 ft 240 kts 320°
2026-05-04 20:26 40.27021 -3.35879 5435 ft 242 kts 320°
2026-05-04 20:26 40.28375 -3.37242 5261 ft 244 kts 320°
2026-05-04 20:26 40.29728 -3.38609 5092 ft 246 kts 320°
2026-05-04 20:27 40.31081 -3.39972 4920 ft 247 kts 321°
2026-05-04 20:27 40.32448 -3.41349 4746 ft 249 kts 321°
2026-05-04 20:27 40.33811 -3.42726 4573 ft 250 kts 321°
2026-05-04 20:27 40.35173 -3.44100 4397 ft 242 kts 321°
2026-05-04 20:28 40.36463 -3.45403 4225 ft 228 kts 320°
2026-05-04 20:28 40.37674 -3.46659 4022 ft 209 kts 320°
2026-05-04 20:28 40.38733 -3.47753 3804 ft 186 kts 320°
2026-05-04 20:28 40.39703 -3.48719 3592 ft 167 kts 320°
2026-05-04 20:29 40.40589 -3.49607 3377 ft 155 kts 320°
2026-05-04 20:29 40.41456 -3.50485 3168 ft 154 kts 320°
2026-05-04 20:29 40.42290 -3.51330 2964 ft 153 kts 321°
2026-05-04 20:29 40.43138 -3.52189 2760 ft 155 kts 320°
2026-05-04 20:30 40.43998 -3.53071 2545 ft 155 kts 320°
2026-05-04 20:30 40.44857 -3.53912 2346 ft 152 kts 322°
2026-05-04 20:30 40.45681 -3.54744 2176 ft 149 kts 320°
2026-05-04 20:30 40.46496 -3.55573 2005 ft 143 kts 321°
2026-05-04 20:31 40.47208 -3.56300 1962 ft 115 kts 322°
2026-05-04 20:31 40.47700 -3.56803 1962 ft 53 kts 313°
2026-05-04 20:31 40.47803 -3.57034 1962 ft 15 kts 296°
2026-05-04 20:31 40.47776 -3.57127 1962 ft 13 kts 178°
2026-05-04 20:32 40.47691 -3.57055 1962 ft 16 kts 142°
2026-05-04 20:32 40.47589 -3.56951 1962 ft 20 kts 140°
2026-05-04 20:32 40.47467 -3.56822 1962 ft 24 kts 143°
2026-05-04 20:32 40.47322 -3.56685 1962 ft 27 kts 143°
2026-05-04 20:33 40.47161 -3.56521 1962 ft 31 kts 147°
2026-05-04 20:33 40.46950 -3.56454 1962 ft 32 kts 184°
2026-05-04 20:33 40.46727 -3.56472 1962 ft 32 kts 183°
2026-05-04 20:33 40.46506 -3.56487 1962 ft 32 kts 185°
2026-05-04 20:34 40.46285 -3.56506 1962 ft 25 kts 185°
2026-05-04 20:34 40.46228 -3.56617 1962 ft 16 kts 270°
2026-05-04 20:34 40.46227 -3.56771 1962 ft 16 kts 269°
2026-05-04 20:34 40.46181 -3.56875 1962 ft 14 kts 162°
2026-05-04 20:35 40.46153 -3.56849 1962 ft 4 kts 141°